Other Public Products
Issued by NWS Grand Forks, ND

Home | Current Version | Previous Version | Text Only | Print | Product List | Glossary On
Versions: 1 2 3 4 5 6 7 8 9 10 11 12 13 14 15 16 17 18 19 20 21 22 23 24 25 26 27 28 29 30 31 32 33 34 35 36 37 38 39 40 41 42 43 44 45 46 47 48 49 50
000
FPUS83 KFGF 241731
OPUFGF
PRAIRIE TO PINES WEATHER ROUNDUP
NATIONAL WEATHER SERVICE EASTERN NORTH DAKOTA/GRAND FORKS ND
1200 PM CDT SAT JUN 24 2017

 **SATELLITE DATA USED TO AUGMENT SKY COVER AT AUTOMATED STATIONS**
 *****  WEATHER ACROSS EASTERN NORTH DAKOTA  *****

CITY           SKY/WX    TMP DP  RH WIND       PRES   REMARKS
GRAND FORKS    LGT RAIN  55  49  80 NW15G25   30.02R
GRAND FORKS AF LGT RAIN  54  50  87 NW15G24   30.04R
GRAND CITY NWS NOT AVBL
BUXTON           N/A     59  49  69 NW13        N/A
DEVILS LAKE    CLOUDY    52  45  77 NW22G31   30.10R
FARGO          CLOUDY    57  46  66 NW14      30.04R
WAHPETON ARPT  PTSUNNY   55  45  67 N12       30.06R
$$

 *****  WEATHER ACROSS CENTRAL AND WESTERN NORTH DAKOTA  *****

CITY           SKY/WX    TMP DP  RH WIND       PRES   REMARKS
JAMESTOWN      CLOUDY    56  41  57 NW21G31   30.11R
BISMARCK       FAIR      59  38  45 NW18G30   30.20S
MINOT          CLOUDY    56  43  61 NW22G33   30.20S
MINOT AFB      CLOUDY    54  43  65 NW22G28   30.19R
GARRISON         N/A     54  40  59 N21G29    30.21R
WILLISTON      FAIR      62  35  36 N23G30    30.29R
DICKINSON      FAIR      59  30  33 N26G37    30.24R
HETTINGER      FAIR      63  32  31 NW22G32   30.26S
$$

 *****  OTHER OBSERVATIONS NORTHEAST NORTH DAKOTA  *****

CITY           SKY/WX    TMP DP  RH WIND       PRES   REMARKS
WALHALLA       NOT AVBL
LANGDON        CLOUDY    50  50 100 N21G29    30.06R
CAVALIER       NOT AVBL
GRAFTON        CLOUDY    54  52  94 NW18      30.03S
CANDO          NOT AVBL
FORT TOTTEN      N/A     51  48  88 NW9       29.95S
ROLLA            N/A     48  48 100 N18G29    30.14R FOG
RUGBY          NOT AVBL
 ***** THE ABOVE OBSERVATIONS ARE NON NWS ARE NOT QUALITY
        CONTROLLED AND MAY MIS-REPORT RAIN FOR SNOW...
$$

 *****  OTHER OBSERVATIONS SOUTHEAST NORTH DAKOTA *****

CITY           SKY/WX    TMP DP  RH WIND       PRES   REMARKS
COOPERSTOWN    CLOUDY    55  43  62 NW21G30   30.09R
VALLEY CITY    CLOUDY    55  43  62 NW21G28   30.11R
OAKES          NOT AVBL
GWINNER        PTSUNNY   59  41  51 W15G26    30.10R
SHEYENNE NWR     N/A     59  44  58 NW10      29.95S
BUFFALO          N/A     56  40  53 NW16G29     N/A
WYNDMERE       NOT AVBL
 ***** THE ABOVE OBSERVATIONS ARE NON NWS ARE NOT QUALITY
       CONTROLLED AND MAY MIS-REPORT RAIN FOR SNOW...
$$

  *****  WEATHER ACROSS NORTHERN MINNESOTA  *****

CITY           SKY/WX    TMP DP  RH WIND       PRES   REMARKS
FLAG ISLAND    CLOUDY    55  48  76 NW7       29.94R
WARROAD        CLOUDY    55  50  82 W7        29.97R
ROSEAU         CLOUDY    55  48  76 W8G16     29.97S
HALLOCK        LGT RAIN  55  54  94 NW10      29.98S
THF RVR FALLS  CLOUDY    54  45  71 NW16      30.01R
HALSTAD          N/A     58  48  71 N14         N/A
FOSSTON        CLOUDY    55  45  67 W15       30.01R
BAUDETTE       PTSUNNY   57  49  74 NW12      29.95R
WASKISH        CLOUDY    61  48  63 W13G18    29.96R
CROOKSTON      CLOUDY    55  48  76 NW20      30.03R
$$
  *****  WEATHER ACROSS CENTRAL AND WEST MINNESOTA  *****

CITY           SKY/WX    TMP DP  RH WIND       PRES   REMARKS
BEMIDJI        LGT RAIN  55  47  73 NW13G20   29.98R
PARK RAPIDS    FAIR      60  45  57 W13       29.99R
WADENA         PTSUNNY   54  46  76 NW10G18   30.01R
DETROIT LAKES  FAIR      52  50  93 NW15      30.05R
MOORHEAD       PTSUNNY   59  45  58 NW16      30.05R
FERGUS FALLS   PTSUNNY   55  48  76 NW16G22   30.04R
ELBOW LAKE     PTSUNNY   57  46  66 NW13G26   30.06R
MORRIS MN      PTSUNNY   61  43  51 NW15G22   30.05R
STAPLES        PTSUNNY   59  43  55 W17       30.00R
WHEATON        FAIR      59  43  55 W14       30.09R
$$
  *****  WEATHER ELSEWHERE ACROSS MINNESOTA  *****

CITY           SKY/WX    TMP DP  RH WIND       PRES   REMARKS
DULUTH         CLOUDY    57  46  66 NW17G24   29.92R
INTRNTL FALLS  CLOUDY    60  47  61 NW13      29.93R
ELY            CLOUDY    54  48  82 W8G17     29.90S
CLOQUET        LGT RAIN  57  45  62 NW9       29.95R
BRAINERD       PTSUNNY   57  43  59 W16       29.99R
HIBBING        LGT RAIN  56  47  71 NW12      29.93R
ALEXANDRIA     PTSUNNY   53  45  74 W20G32    30.04R
SAINT CLOUD    PTSUNNY   62  41  46 W15G22    30.00S
MINNEAPOLIS    CLOUDY    64  40  41 W18G26    30.02R
$$

  *****  WEATHER ACROSS SOUTH DAKOTA  *****

CITY           SKY/WX    TMP DP  RH WIND       PRES   REMARKS
SIOUX FALLS    PTSUNNY   71  42  35 NW22G32   30.09S
BROOKINGS      FAIR      64  43  46 NW23G29   30.09S
WATERTOWN      PTSUNNY   59  41  51 NW22G31   30.09R
HURON          FAIR      67  41  38 NW24G35   30.13S
SISSETON         N/A     61  40  45 NW22G29   30.07R
ABERDEEN       CLOUDY    61  40  45 NW22      30.14R
MITCHELL       FAIR      72  39  30 NW23G33   30.14R
PIERRE         FAIR      67  41  38 NW17G25   30.20S
MOBRIDGE       FAIR      65  35  33 NW22G35   30.15R
RAPID CITY     FAIR      70  32  24 N23G32    30.27S
$$

  *****  SOME WEATHER IN NEARBY STATES *****

CITY           SKY/WX    TMP DP  RH WIND       PRES   REMARKS
GLASGOW MT     FAIR      66  35  31 VRB6      30.30F
GREAT FALLS MT FAIR      67  34  29 VRB5      30.34F
CHEYENNE WY    FAIR      63  35  35 E8        30.37S
SCOTTSBLUFF NE CLOUDY    65  38  36 MISG      30.32S
OMAHA NE       FAIR      76  40  27 W12       30.17F
DES MOINES IA  FAIR      72  38  29 NW14      30.16R
DAVENPORT IA   FAIR      68  44  42 W17G30    30.09R
CHICAGO IL     PTSUNNY   73  50  44 W16       29.98R
EAU CLAIRE WI  PTSUNNY   64  41  42 W16G25    29.98R
LA CROSSE WI   PTSUNNY   69  45  41 NW14      30.01R
$$

  *****  SOME NATIONAL WEATHER *****

CITY           SKY/WX    TMP DP  RH WIND       PRES   REMARKS
LA GUARDIA NY  FAIR      83  56  39 NW18G31   29.70R
RALEIGH NC     PTSUNNY   90  73  57 SW6       29.95S HX  98
ATLANTA GA     CLOUDY    77  74  90 W5        30.05R
NEW ORLEANS LA PTSUNNY   89  78  70 NW7       30.04S HX 103
OKLAHOMA CITY  FAIR      79  52  38 E12       30.23S
ALBUQUERQUE NM CLOUDY    77  51  40 E18G28    30.26S
SALT LAKE CITY FAIR      81  37  20 NW5       30.21S
LOS ANGELES CA PTSUNNY   68  61  78 VRB5      29.90S
BOISE ID       FAIR      72  42  34 VRB5      30.20S
SEATTLE WA     FAIR      75  54  47 N9        30.14F
$$

*** WEATHER ACROSS MANITOBA...SASKATCHEWAN AND ONTARIO ***
                ***ONTARIO***

CITY           SKY/WX    TMP DP  RH WIND       PRES   REMARKS
GERALDTON      PTSUNNY   61  46  59 N10       29.86R
THUNDER BAY    MOSUNNY   66  54  63 S10       29.83R
SIOUX LOOKOUT  PTSUNNY   59  52  77 N5        29.89S
TORONTO        MOSUNNY   73  55  53 W20G30    29.77R
BIG TROUT LK   CLOUDY    50  37  62 N7        30.00S
PICKLE LAKE    PTSUNNY   63  43  48 N9        29.91S
DRYDEN         CLOUDY    55  54  94 W7        29.89S
KENORA         CLOUDY    54  50  87 N5        29.94R
$$
                *** MANITOBA***

CITY           SKY/WX    TMP DP  RH WIND       PRES   REMARKS
BRANDON        PTSUNNY   54  46  76 N16G24    30.13R
DAUPHIN        CLOUDY    55  45  67 N16G23    30.17R
ISLAND LAKE    PTSUNNY   55  36  47 NE12G22   30.08S
PILOT MOUND      N/A     50  45  81 N16G24      N/A
THE PAS        LGT RAIN  50  45  81 NW5       30.21S
THOMPSON       CLOUDY    57  34  41 N9        30.12S
WINNIPEG       CLOUDY    52  48  87 N23G30    30.02R
LYNN LAKE      MOSUNNY   55  43  62 W8        30.17R
CHURCHILL      MOSUNNY   50  43  76 N10       30.07S
GILLAM         PTSUNNY   59  36  41 NW10      30.05S
$$
                ***SASKATCHEWAN***

CITY           SKY/WX    TMP DP  RH WIND       PRES   REMARKS
ESTEVAN        PTSUNNY   55  41  58 NW18G25   30.26R
KINDERSLEY     PTSUNNY   63  43  48 NW8       30.28R
LLOYDMINSTER   MOSUNNY   66  41  39 W7        30.23F
PRINCE ALBERT  PTSUNNY   59  41  51 N7        30.26S
REGINA         MOSUNNY   59  41  51 N12G21    30.29S
YORKTON        CLOUDY    54  39  58 N16G22    30.24R


USA.gov is the U.S. government's official web portal to all federal, state and local government web resources and services.